Home > Weather > Kyoto > Past weeks

Flag for Japan Past Weather in Kyoto, Japan — Yesterday and Last 2 Weeks

Now
69 °F

Mild.


Feels Like: 69 °F
Forecast: 66 / 81 °F
Wind: 1 mph from Southeast

Location: Osaka

Current Time: Jun 29, 2016 at 12:14:13 AM

Latest Report: Jun 28, 2016 at 11:00 PM


Visibility: N/A

Pressure: 29.93 "Hg

Humidity: 95%

Dew Point: 67 °F

Location of KyotoLocation

Past Weather in Kyoto — Graph

°F

Kyoto Temperature Yesterday

Maximum temperature yesterday: 76 °F (at 3:00 PM)
Minimum temperature yesterday: 65 °F (at 12:00 AM)
Average temperature yesterday: 70 °F

High & Low Weather Summary for the Past Weeks

 TemperatureHumidityPressure
High90 °F (Jun 18, 3:00 PM)98% (Jun 16, 5:00 PM)29.98 "Hg (Jun 16, 5:00 PM)
Low65 °F (Jun 27, 11:00 PM)30% (Jun 18, 6:00 PM)29.47 "Hg (Jun 25, 12:00 AM)
Average75 °F76%29.76 "Hg
* Reported Jun 13 11:00 PM — Jun 28 11:00 PM, Kyoto, Weather by CustomWeather, © 2016

Note: Actual official high and low records may vary slightly from our data, if they occured in-between our weather recording intervals... More about our weather records

Advertising

Kyoto Weather History for the Previous 24 Hours

Scroll right to see more
 ConditionsComfort  
Time TempWeatherWind HumidityBarometerVisibility
11:00 PM
Tue, Jun 28
69 °FMild.1 mph95%29.93 "HgN/A
10:00 PM69 °FMild.5 mph93%29.94 "HgN/A
9:00 PM71 °FOvercast.3 mph92%29.91 "Hg6 mi
8:00 PM71 °FMild.2 mph93%29.90 "HgN/A
7:00 PM73 °FMild.2 mph83%29.89 "HgN/A
6:00 PM73 °FOvercast.2 mph85%29.88 "Hg6 mi
5:00 PM74 °FMild.5 mph83%29.87 "HgN/A
4:00 PM75 °FMild.7 mph79%29.86 "HgN/A
3:00 PM76 °FOvercast.5 mph76%29.85 "Hg6 mi
2:00 PM72 °FMild.3 mph85%29.85 "HgN/A
1:00 PM71 °FMild.1 mph88%29.86 "HgN/A
12:00 PM71 °FOvercast.3 mph88%29.85 "Hg6 mi
11:00 AM71 °FMild.6 mph89%29.84 "HgN/A
10:00 AM69 °FMild.5 mph93%29.85 "HgN/A
9:00 AM68 °FSprinkles. Low clouds.5 mph95%29.84 "Hg6 mi
8:00 AM68 °FMild.5 mph95%29.83 "HgN/A
7:00 AM67 °FMild.7 mph96%29.81 "HgN/A
6:00 AM67 °FSprinkles. Low clouds.5 mph97%29.81 "Hg6 mi
5:00 AM67 °FMild.7 mph97%29.80 "HgN/A
4:00 AM67 °FMild.8 mph95%29.78 "HgN/A
3:00 AM67 °FOvercast.9 mph95%29.78 "Hg12 mi
2:00 AM66 °FMild.6 mph95%29.80 "HgN/A
1:00 AM66 °FMild.8 mph97%29.82 "HgN/A
12:00 AM65 °FMild.8 mph96%29.85 "HgN/A
Weather by CustomWeather, © 2016

See weather overviewHow to use our weather pages